| time (UTC) | temp F | wind direction | speed MPH | gust MPH | rain 1hr in | rain 24hr in | rain mn in | humidity % | barometer mb |
| 20260506204534 | 76 | 339 | 3.0 | 15.0 | 0.00 | 0.00 | 0.00 | 44 | 1018.5 |
| 20260506203109 | 75 | 352 | 3.0 | 13.0 | 0.00 | 0.00 | 0.00 | 46 | 1018.6 |
| 20260506201540 | 74 | 227 | 4.0 | 19.0 | 0.00 | 0.00 | 0.00 | 48 | 1018.8 |
| 20260506200029 | 74 | 281 | 4.0 | 15.0 | 0.00 | 0.00 | 0.00 | 48 | 1018.7 |
| 20260506194534 | 73 | 237 | 4.0 | 19.0 | 0.00 | 0.00 | 0.00 | 50 | 1018.7 |
| 20260506191532 | 72 | 349 | 3.0 | 13.0 | 0.00 | 0.00 | 0.00 | 52 | 1019.1 |
| 20260506190032 | 72 | 341 | 4.0 | 16.0 | 0.00 | 0.00 | 0.00 | 54 | 1019.1 |
| 20260506184531 | 70 | 351 | 4.0 | 15.0 | 0.00 | 0.00 | 0.00 | 56 | 1019.1 |
| 20260506183029 | 72 | 346 | 4.0 | 11.0 | 0.00 | 0.00 | 0.00 | 53 | 1019.1 |
| 20260506181530 | 71 | 275 | 3.0 | 13.0 | 0.00 | 0.00 | 0.00 | 55 | 1019.0 |
| 20260506180147 | 70 | 345 | 3.0 | 14.0 | 0.00 | 0.00 | 0.00 | 57 | 1019.1 |
| 20260506174528 | 69 | 351 | 4.0 | 11.0 | 0.00 | 0.00 | 0.00 | 58 | 1019.2 |
| 20260506173030 | 69 | 345 | 2.0 | 9.0 | 0.00 | 0.00 | 0.00 | 59 | 1019.2 |
| 20260506171528 | 69 | 341 | 2.0 | 8.0 | 0.00 | 0.00 | 0.00 | 59 | 1019.1 |
| 20260506170109 | 70 | 318 | 2.0 | 8.0 | 0.00 | 0.00 | 0.00 | 59 | 1019.1 |
| 20260506164529 | 69 | 186 | 5.0 | 13.0 | 0.00 | 0.00 | 0.00 | 59 | 1019.1 |
| 20260506160030 | 66 | 193 | 3.0 | 14.0 | 0.00 | 0.00 | 0.00 | 67 | 1019.4 |
| 20260506154607 | 65 | 184 | 4.0 | 12.0 | 0.00 | 0.00 | 0.00 | 69 | 1019.3 |
| 20260506153147 | 64 | 203 | 5.0 | 15.0 | 0.00 | 0.00 | 0.00 | 73 | 1019.3 |
| 20260506151608 | 63 | 188 | 2.0 | 7.0 | 0.00 | 0.00 | 0.00 | 80 | 1019.3 |
| 20260506150144 | 61 | 183 | 2.0 | 7.0 | 0.00 | 0.00 | 0.00 | 89 | 1019.4 |
| 20260506144529 | 58 | 180 | 2.0 | 6.0 | 0.00 | 0.00 | 0.00 | 94 | 1019.5 |
| 20260506143030 | 56 | 181 | 4.0 | 7.0 | 0.00 | 0.00 | 0.00 | 96 | 1019.5 |
| 20260506141531 | 54 | 180 | 3.0 | 5.0 | 0.00 | 0.00 | 0.00 | 97 | 1019.5 |
| 20260506134540 | 51 | 182 | 1.0 | 3.0 | 0.00 | 0.00 | 0.00 | 97 | 1019.3 |
| 20260506131532 | 49 | 191 | 1.0 | 4.0 | 0.00 | 0.00 | 0.00 | 97 | 1019.1 |
| 20260506130031 | 48 | 187 | 2.0 | 5.0 | 0.00 | 0.00 | 0.00 | 96 | 1019.0 |
| 20260506124533 | 48 | 230 | 2.0 | 6.0 | 0.00 | 0.00 | 0.00 | 96 | 1018.9 |
| 20260506123040 | 48 | 197 | 1.0 | 4.0 | 0.00 | 0.00 | 0.00 | 96 | 1018.7 |
| 20260506121531 | 48 | 227 | 1.0 | 4.0 | 0.00 | 0.00 | 0.00 | 96 | 1018.6 |
| 20260506120030 | 48 | 189 | 2.0 | 4.0 | 0.00 | 0.00 | 0.00 | 96 | 1018.5 |
| 20260506114529 | 48 | 189 | 3.0 | 5.0 | 0.00 | 0.00 | 0.00 | 96 | 1018.3 |
| 20260506113029 | 47 | 148 | 2.0 | 3.0 | 0.00 | 0.00 | 0.00 | 95 | 1018.2 |
| 20260506110153 | 48 | 190 | 2.0 | 4.0 | 0.00 | 0.00 | 0.00 | 95 | 1017.9 |
| 20260506104532 | 48 | 216 | 2.0 | 6.0 | 0.00 | 0.00 | 0.00 | 95 | 1017.7 |
| 20260506103031 | 48 | 196 | 1.0 | 3.0 | 0.00 | 0.00 | 0.00 | 95 | 1017.6 |
| 20260506094532 | 49 | 197 | 1.0 | 5.0 | 0.00 | 0.00 | 0.00 | 94 | 1017.6 |
| 20260506093029 | 49 | 186 | 2.0 | 5.0 | 0.00 | 0.00 | 0.00 | 94 | 1017.4 |
| 20260506091531 | 49 | 180 | 1.0 | 4.0 | 0.00 | 0.00 | 0.00 | 94 | 1017.5 |
| 20260506090029 | 49 | 191 | 2.0 | 5.0 | 0.00 | 0.00 | 0.00 | 93 | 1017.4 |
| 20260506084531 | 49 | 183 | 1.0 | 3.0 | 0.00 | 0.00 | 0.00 | 92 | 1017.3 |
| 20260506083028 | 50 | 188 | 2.0 | 4.0 | 0.00 | 0.00 | 0.00 | 92 | 1017.1 |
| 20260506081531 | 51 | 235 | 1.0 | 3.0 | 0.00 | 0.00 | 0.00 | 93 | 1017.1 |
| 20260506073031 | 50 | 197 | 2.0 | 3.0 | 0.00 | 0.00 | 0.00 | 90 | 1016.7 |
| 20260506061532 | 53 | 186 | 1.0 | 4.0 | 0.00 | 0.00 | 0.00 | 86 | 1016.3 |
| 20260506044608 | 56 | 202 | 0.0 | 3.0 | 0.00 | 0.00 | 0.00 | 79 | 1015.6 |
| 20260506043107 | 57 | 194 | 3.0 | 5.0 | 0.00 | 0.00 | 0.00 | 78 | 1015.3 |
| 20260506041537 | 58 | 195 | 2.0 | 4.0 | 0.00 | 0.00 | 0.00 | 76 | 1015.3 |
| 20260506040042 | 59 | 183 | 3.0 | 6.0 | 0.00 | 0.00 | 0.00 | 75 | 1015.0 |
| 20260506034532 | 59 | 192 | 3.0 | 6.0 | 0.00 | 0.00 | 0.00 | 74 | 1014.7 |
| 20260506033029 | 60 | 201 | 3.0 | 5.0 | 0.00 | 0.00 | 0.00 | 72 | 1014.4 |
| 20260506031529 | 62 | 200 | 3.0 | 6.0 | 0.00 | 0.00 | 0.00 | 70 | 1014.2 |
| 20260506030031 | 63 | 198 | 3.0 | 7.0 | 0.00 | 0.00 | 0.00 | 68 | 1013.9 |
| 20260506024532 | 64 | 195 | 2.0 | 4.0 | 0.00 | 0.00 | 0.00 | 66 | 1013.7 |
| 20260506023029 | 65 | 200 | 3.0 | 6.0 | 0.00 | 0.00 | 0.00 | 64 | 1013.7 |
| 20260506021533 | 66 | 190 | 3.0 | 6.0 | 0.00 | 0.00 | 0.00 | 63 | 1013.5 |
| 20260506020041 | 67 | 191 | 3.0 | 8.0 | 0.00 | 0.00 | 0.00 | 61 | 1013.4 |
| 20260506014530 | 69 | 175 | 3.0 | 8.0 | 0.00 | 0.00 | 0.00 | 60 | 1013.3 |
| 20260506013107 | 70 | 166 | 5.0 | 10.0 | 0.00 | 0.00 | 0.00 | 58 | 1013.2 |
| 20260506011530 | 71 | 173 | 2.0 | 7.0 | 0.00 | 0.00 | 0.00 | 55 | 1013.1 |
| 20260506003108 | 73 | 270 | 1.0 | 7.0 | 0.00 | 0.00 | 0.00 | 53 | 1012.9 |
| 20260506001542 | 74 | 327 | 1.0 | 5.0 | 0.00 | 0.00 | 0.00 | 52 | 1012.9 |
| 20260506000147 | 74 | 193 | 2.0 | 8.0 | 0.00 | 0.00 | 0.00 | 52 | 1013.1 |
| 20260505234530 | 74 | 344 | 1.0 | 7.0 | 0.00 | 0.00 | 0.00 | 51 | 1013.2 |
| 20260505233030 | 74 | 16 | 2.0 | 5.0 | 0.00 | 0.00 | 0.00 | 51 | 1013.3 |
| 20260505231532 | 75 | 336 | 2.0 | 7.0 | 0.00 | 0.00 | 0.00 | 50 | 1013.3 |
| 20260505230030 | 76 | 351 | 1.0 | 6.0 | 0.00 | 0.00 | 0.00 | 50 | 1013.5 |
| 20260505224533 | 76 | 188 | 2.0 | 9.0 | 0.00 | 0.00 | 0.00 | 50 | 1013.6 |
| 20260505223030 | 75 | 338 | 3.0 | 8.0 | 0.00 | 0.00 | 0.00 | 49 | 1013.7 |
| 20260505221532 | 76 | 211 | 2.0 | 10.0 | 0.00 | 0.00 | 0.00 | 49 | 1013.8 |
| 20260505220031 | 76 | 193 | 2.0 | 10.0 | 0.00 | 0.00 | 0.00 | 50 | 1014.0 |
| 20260505214533 | 75 | 355 | 2.0 | 8.0 | 0.00 | 0.00 | 0.00 | 50 | 1014.0 |
| 20260505213032 | 75 | 352 | 2.0 | 11.0 | 0.00 | 0.00 | 0.00 | 49 | 1014.1 |
| 20260505211531 | 76 | 9 | 2.0 | 7.0 | 0.00 | 0.00 | 0.00 | 48 | 1014.1 |
| 20260505210029 | 75 | 185 | 2.0 | 7.0 | 0.00 | 0.00 | 0.00 | 50 | 1014.3 |